Location: Newark
(50.0306°N, 2.3272°E)
Time: 03:46:28
(UTC+00:00)

Vanguard 1 Rocket - Pass Details

Date: 17 December 2019
Orbit: 650 x 4226 km, 34.3° (Epoch: 19 January)

Event Time Altitude Azimuth Distance (km) Brightness Sun altitude
Rises 23:51:50 0° 269° (W) 6,798 11.8 -63.3°
Enters shadow 23:54:36 - 266° (W) 6,053 11.5 -63.3°
Reaches altitude 10° 23:58:10 10° 259° (WSW) 5,085 - -63.2°
Maximum altitude 00:07:27 23° 214° (SW) 3,016 - -63.0°
Drops below altitude 10° 00:13:28 10° 165° (SSE) 3,155 - -62.8°
Sets 00:16:18 0° 150° (SSE) 3,768 - -62.7°
